TRSI-SAT (44831 NORAD) Tracking and Keplerian Element Data

This shows tracking and keplerian element data for the satellite.

Feedback or suggestion? Click here.




ElementValue
Catalog44831
NameTRSI-SAT
Epoch Orbit649
Epoch Day16.85821144
Epoch Year2020
RAAN245.7817
Inclination96.9986
Eccentricity0.0040923
Argument of Perigee97.1349
Mean Anonmoly263.4568
Mean Motion15.66514141
Decay Rate0.00023961
L11 44831U 19084H 20016.85821144 .00023961 00000-0 22068-3 0 9996
L22 44831 96.9986 245.7817 0040923 97.1349 263.4568 15.66514141 6491

Live tracking and technical data element details for TRSI-SAT (NORAD 44831). TRSI-SAT can be tracked NOW for your location showing map with azimuth and elevation plus other details from your city location.

Track the satellite on the map from your city or location and see movement details for azimuth, elevation, latitude, longitude, range, height, and movement on the map or in text.







IsCatalogInMostPopularTable: catalog: 44831, numindb: 6
Update: records affected: 1



GetName: 44831 TRSI-SAT

Hit Count: updated at: Sat, 18 Jan 2020 16:58:43 GMT